OpenBCM V1.13 (Linux)

Packet Radio Mailbox

DB0FHN

[JN59NK Nuernberg]

 Login: GUEST





  
I0OJJ  > KEPS     19.02.26 02:33l 308 Lines 14717 Bytes #999 (0) @ AMSAT
BID : ORB26050.1
Read: OE5RCO DJ6UX GUEST
Subj: 2Line Orbital Elements 26050.AMSAT
Path: DB0FHN<DB0RKB<DK0WUE<PD0LPM<PI8ZTM<CX2SA<EA2RCF<I0OJJ
Sent: 260219/0021z @:I0OJJ.ITA.EU [Rome] obcm1.13-38-g65b7
From: I0OJJ @ I0OJJ.ITA.EU (Gustavo)
To:   KEPS @ AMSAT
X-Info: This message was generated automatically


QST de W1STR

AMSAT Orbital Elements for Amateur Satellites in TLE Format
From Orbital Analysis Office
New England Sci-Tech STEM Education Center
Natick MA February 19, 2026
To all radio amateurs


These element sets describe the orbits of various satellites 
in use by the amateur radio community. For details see:
www.amsat.org/keplerian-elements-formats/

A daily update of element sets is available at:
www.amsat.org/tle/daily-bulletin.txt
or without bulletin text:
www.amsat.org/tle/dailytle.txt


AO-07
1 07530U 74089B   26049.89501455 -.00000054  00000-0 -44950-4 0  9998
2 07530 101.9973  61.8827 0012165 358.3557 119.0568 12.53695919345697
UO-11
1 14781U 84021B   26049.87596920  .00001410  00000-0  15028-3 0  9998
2 14781  97.7915  16.8994 0006716 205.2014 154.8877 14.90431865239502
AO-27
1 22825U 93061C   26049.75724301  .00000105  00000-0  57140-4 0  9995
2 22825  98.7023 117.1490 0009524  89.0177 271.2096 14.30906361690066
FO-29
1 24278U 96046B   26049.57222944  .00000034  00000-0  68343-4 0  9999
2 24278  98.5408 274.5753 0350544  44.3181 318.5461 13.53267500457123
GO-32
1 25397U 98043D   26049.84437526  .00000060  00000-0  46176-4 0  9994
2 25397  99.0005  39.6588 0001358 150.5081 209.6173 14.24400403434480
ISS
1 25544U 98067A   26049.79608032  .00009878  00000-0  18896-3 0  9993
2 25544  51.6323 165.7431 0010935 112.1599 248.0551 15.48691264553403
NO-44
1 26931U 01043C   26049.76929742  .00000168  00000-0  93725-4 0  9991
2 26931  67.0500 190.5427 0007019 265.7671  94.2629 14.31901024273492
SO-50
1 27607U 02058C   26049.59757929  .00001554  00000-0  20136-3 0  9991
2 27607  64.5521 135.8159 0074730 284.1181  75.1628 14.82703146246877
CO-55
1 27844U 03031E   26049.52555333  .00000318  00000-0  15658-3 0  9994
2 27844  98.6779  59.5628 0009858 163.8515 196.2980 14.24249098174782
CO-57
1 27848U 03031J   26049.52522697  .00000263  00000-0  13496-3 0  9992
2 27848  98.6808  59.3707 0009398 181.8028 178.3118 14.23546837174495
RS-22
1 27939U 03042A   26049.92167524  .00001377  00000-0  22158-3 0  9995
2 27939  98.3408 230.9629 0010232 286.0017 211.6881 14.73197229198131
CO-58
1 28895U 05043F   26049.41434501  .00001907  00000-0  31014-3 0  9996
2 28895  98.2794 202.6796 0013628 218.9970 141.0255 14.72227778 84277
CO-65
1 32785U 08021C   26049.87156291  .00005967  00000-0  39068-3 0  9992
2 32785  97.8181  29.0147 0011187  74.3050 285.9410 15.08079230967355
CO-66
1 32791U 08021J   26049.54477745  .00017658  00000-0  64452-3 0  9998
2 32791  97.7498  42.1953 0004434  45.2958 314.8641 15.28192626969148
RS-30
1 32953U 08025A   26049.87587625  .00000067  00000-0  40897-3 0  9990
2 32953  82.4980  69.0332 0018864 206.6784 153.3327 12.43175567804993
SRMSAT
1 37841U 11058D   26049.40473834  .00000428  00000-0  88608-4 0  9990
2 37841  19.9725  58.4218 0011640 338.1891 159.5926 14.11540025741014
ZACUBE-1
1 39417U 13066B   26049.85431401  .00005000  00000-0  39919-3 0  9996
2 39417  97.8197  11.5868 0040578 284.7860  74.8869 15.00101425662987
Delfi-N3xt
1 39428U 13066N   26049.71982441  .00007895  00000-0  71765-3 0  9997
2 39428  97.8354 330.2947 0075170 240.1089 119.2648 14.93348712656938
GOMX-1
1 39430U 13066Q   26049.82162227  .00002305  00000-0  35233-3 0  9995
2 39430  97.6573 257.7028 0130814  97.4812 264.1279 14.69018156652530
LO-74
1 39440U 13066AA  26049.86271213  .00004863  00000-0  46046-3 0  9991
2 39440  97.8794 358.5139 0060542  60.4301 300.2933 14.92704714659336
AO-73
1 39444U 13066AE  26049.85901802  .00008459  00000-0  55295-3 0  9999
2 39444  97.8158  19.0874 0035869 245.2366 114.5127 15.07528333661823
DTUSAT-2
1 40030U 14033W   26049.88107780  .00007149  00000-0  40714-3 0  9998
2 40030  98.0825  40.2863 0006079 283.1487  76.9064 15.13149863634780
EO-80
1 40032U 14033Y   26049.55607392  .00007486  00000-0  42459-3 0  9990
2 40032  98.0712  39.2443 0006421 205.5931 154.4981 15.13276098634716
LILACSAT-2
1 40908U 15049K   26049.89358177  .00014795  00000-0  29171-3 0  9998
2 40908  97.4833  82.4735 0006393 334.9830  25.1109 15.47281647577436
Horyu-4
1 41340U 16012D   26049.47780329  .00067536  00000-0  81223-3 0  9999
2 41340  30.9907 202.0219 0000816 244.8589 115.1978 15.59504235552107
Lapan A3
1 41603U 16040E   26049.89083169  .00003587  00000-0  11751-3 0  9991
2 41603  97.1466  50.0147 0012504  81.7075 278.5585 15.32201185536693
CAS-2T
1 41847U 16066G   26049.79577351  .00001483  00000-0  21561-3 0  9992
2 41847  98.3925 126.8514 0343766 128.6078 234.6432 14.44401346487701
TechnoSat
1 42829U 17042E   26049.40257464  .00004762  00000-0  34675-3 0  9999
2 42829  97.4097 211.7473 0018570 137.9046 222.3610 15.04087100468841
AO-91
1 43017U 17073E   26049.84980867  .00009353  00000-0  42598-3 0  9995
2 43017  97.4883 279.5464 0157433  17.0713 343.5728 15.10418772447514
S-Net D
1 43186U 18014G   26049.72462648  .00005528  00000-0  29625-3 0  9993
2 43186  97.5462 315.3048 0010291  72.3067 287.9288 15.15358168440813
S-Net B
1 43187U 18014H   26049.73384222  .00005866  00000-0  31436-3 0  9994
2 43187  97.5467 315.2969 0010896  67.8968 292.3420 15.15330824440817
S-Net A
1 43188U 18014J   26049.72405600  .00005487  00000-0  29403-3 0  9998
2 43188  97.5477 315.4746 0010803  68.8070 291.4316 15.15364160440811
S-Net C
1 43189U 18014K   26049.73709739  .00005984  00000-0  32056-3 0  9990
2 43189  97.5493 315.5439 0012116  61.8134 298.4321 15.15322975439362
Ten-Koh
1 43677U 18084G   26049.46059553  .00003535  00000-0  27222-3 0  9990
2 43677  98.0767 236.8429 0010011 154.6693 205.5023 15.02322015398331
PO-101
1 43678U 18084H   26049.84272903  .00002337  00000-0  19367-3 0  9999
2 43678  98.1040 241.1060 0009909 185.2659 174.8461 14.99860180398477
QO-100
1 43700U 18090A   26049.79767014  .00000149  00000-0  00000+0 0  9997
2 43700   0.0208 221.8360 0002481 146.5857  93.2933  1.00272681 26496
MinXSS-2
1 43758U 18099A   26049.73836223  .00027930  00000-0  72326-3 0  9993
2 43758  97.4671 123.1982 0007765 336.8008  23.2885 15.38991428395861
AO-95
1 43770U 18099N   26049.40670631  .00010532  00000-0  43872-3 0  9994
2 43770  97.4553 110.2399 0010097  53.1991 307.0171 15.23864384395118
SNUSat 2
1 43782U 18099AA  26049.64099137  .00007603  00000-0  35795-3 0  9999
2 43782  97.4231 104.9148 0010358 359.5511   0.5713 15.19772252395010
SnugLite
1 43784U 18099AC  26049.70430313  .00011143  00000-0  45881-3 0  9994
2 43784  97.4047 105.2899 0002730  17.4286 342.7044 15.24282585395253
ITASat 1
1 43786U 18099AE  26049.65199776  .00006425  00000-0  32451-3 0  9991
2 43786  97.4206 103.5670 0014087  51.1503 309.0985 15.17341226394928
EAGLET 1
1 43790U 18099AJ  26049.69326330  .00004655  00000-0  27509-3 0  9999
2 43790  97.4410 102.4809 0012228  41.4079 318.8076 15.11904240394426
ESEO
1 43792U 18099AL  26049.69218316  .00001156  00000-0  88156-4 0  9994
2 43792  97.4144  92.0856 0012914  26.2639 333.9240 15.03827946393993
JO-97
1 43803U 18099AX  26049.71858278  .00015620  00000-0  54744-3 0  9993
2 43803  97.4295 112.4018 0005356 342.3986  17.7068 15.29540347395496
Suomi 100
1 43804U 18099AY  26049.72837306  .00011953  00000-0  47492-3 0  9991
2 43804  97.4357 110.7177 0009863 345.6047  14.4909 15.25423990395346
ISAT
1 43879U 18111D   26049.74143370  .00045689  00000-0  85056-3 0  9992
2 43879  97.5911 337.4985 0007218  41.5195 318.6603 15.48698489392741
UWE-4
1 43880U 18111E   26049.75768808  .00027329  00000-0  71532-3 0  9999
2 43880  97.5864 333.3805 0010952  42.9730 317.2368 15.38636667392523
Sparrow
1 43881U 18111F   26049.86511010  .00050875  00000-0  84291-3 0  9991
2 43881  97.6121 341.8535 0007629  70.7311 289.4766 15.51977978392908
Prox-1
1 44339U 19036A   26049.58475762  .00014026  00000-0  14823-2 0  9990
2 44339  23.9943 184.6545 0007543  99.2418 260.8934 14.87409763355778
Taurus 1
1 44530U 19059C   26049.84752334  .00010130  00000-0  16774-2 0  9999
2 44530  98.6272 207.5452 0008203 320.2145  39.8458 14.70473226341244
TO-108
1 44881U 19093C   26049.83558747  .00001676  00000-0  19616-3 0  9991
2 44881  97.7653 124.9169 0014921 113.6390 246.6394 14.86298166333831
FloripaSat 1
1 44885U 19093G   26049.87056598  .00005822  00000-0  44355-3 0  9991
2 44885  97.7916 143.3808 0012133 110.2906 249.9624 15.02400757334878
RS-44
1 44909U 19096E   26049.48436723  .00000016  00000-0  14102-4 0  9998
2 44909  82.5173  58.5818 0218575  62.0666 300.2376 12.79747160287162
SALSAT
1 46495U 20068K   26049.55050109  .00008489  00000-0  31548-3 0  9993
2 46495  97.8839  45.5781 0010430  10.4019 349.7433 15.27764465297230
CSS (TIANHE-1)
1 48274U 21035A   26049.89676066  .00023061  00000-0  28199-3 0  9999
2 48274  41.4677 322.4399 0004426 139.3790 220.7380 15.59851583274674
CUTE
1 49263U 21088D   26049.76239259  .00034680  00000-0  35499-3 0  9991
2 49263  97.4253 140.9331 0003717  30.4462 329.7013 15.64924886243911
TeikyoSat 4
1 49396U 21102B   26049.91016838  .00002401  00000-0  15547-3 0  9996
2 49396  97.3819  83.9388 0011717 347.9315  12.1631 15.09019665234889
Z-Sat
1 49399U 21102E   26049.92345843  .00003116  00000-0  15964-3 0  9998
2 49399  97.3487  88.8204 0015508 303.2177  56.7569 15.17216806235506
KOSEN 1
1 49402U 21102H   26049.64793244  .00007344  00000-0  29688-3 0  9999
2 49402  97.3364  94.1518 0012550 265.6618  94.3186 15.24957204235941
HO-113
1 50466U 21131B   26049.89812396  .00000452  00000-0  15375-3 0  9991
2 50466  98.4984 142.9603 0005264  93.9635 266.2155 14.41224226218075
SNUGLITE 2
1 52899U 22065F   26049.80927596  .00001126  00000-0  22354-3 0  9994
2 52899  98.1995 194.9934 0008115  42.8962 317.2872 14.64073268193678
